Location: Chena
(64.8152°N, 147.9227°W)
Time: 12:43:07
(UTC+00:00)

Explorer 7 - All Passes

Search period start: 07 March 2021 00:00
Search period end: 17 March 2021 00:00
Orbit: 484 x 677 km, 50.3° (Epoch: 06 March)

Date Brightness Start Highest point End Pass type
(mag) Time Alt. Az. Time Alt. Az. Time Alt. Az.
07 Mar - 00:36:02 10° S 00:37:31 11° S 00:38:58 10° SSE daylight
07 Mar - 02:15:21 10° SSW 02:16:39 11° SSW 02:17:55 10° S daylight
08 Mar - 00:39:53 10° SSW 00:41:40 12° S 00:43:26 10° SSE daylight
08 Mar - 02:20:12 10° SSW 02:20:47 10° SSW 02:21:21 10° S daylight
09 Mar - 00:43:56 10° SSW 00:45:49 12° S 00:47:41 10° SSE daylight
09 Mar - 23:09:25 10° S 23:10:50 11° SSE 23:12:15 10° SSE daylight
10 Mar - 00:48:10 10° SSW 00:49:59 12° S 00:51:46 10° SSE daylight
10 Mar - 23:13:06 10° SSW 23:14:59 12° S 23:16:49 10° SSE daylight
11 Mar - 00:52:34 10° SSW 00:54:07 12° SSW 00:55:39 10° S daylight
11 Mar - 23:17:02 10° SSW 23:19:07 13° S 23:21:11 10° SSE daylight
12 Mar - 00:57:19 10° SSW 00:58:15 11° SSW 00:59:10 10° S daylight
12 Mar - 21:42:58 10° S 21:44:08 11° SSE 21:45:18 10° SSE daylight
12 Mar - 23:21:09 10° SSW 23:23:17 13° S 23:25:23 10° SSE daylight
13 Mar - 21:46:25 10° S 21:48:16 12° SSE 21:50:06 10° SE daylight
13 Mar - 23:25:23 10° SW 23:27:26 13° S 23:29:26 10° SSE daylight
14 Mar - 21:50:14 10° SSW 21:52:24 13° S 21:54:34 10° SE daylight
14 Mar - 23:29:48 10° SW 23:31:34 12° SSW 23:33:17 10° S daylight
15 Mar - 20:17:01 10° SSE 20:17:26 10° SSE 20:17:50 10° SSE daylight
15 Mar - 21:54:13 10° SSW 21:56:33 14° S 21:58:51 10° SSE daylight
15 Mar - 23:34:32 10° SW 23:35:40 11° SSW 23:36:48 10° S daylight
16 Mar - 20:19:52 10° S 20:21:32 12° SSE 20:23:11 10° SE daylight
16 Mar - 21:58:21 10° SW 22:00:42 14° S 22:02:59 10° SSE daylight
